Home   Weather   Ensenada   Past weeks

Flag for Mexico Past Weather in Ensenada, Baja California, Mexico — Yesterday and Last 2 Weeks

Now
75 °F

Sunny.


Feels Like: 78 °F
Forecast: 61 / 75 °F
Wind: 3 mph from West

Location: Tijuana International Airport

Current Time: Aug 17, 2017 at 12:50:31 pm

Latest Report: Aug 17, 2017 at 11:41 am


Visibility: 8 mi

Pressure: 30.04 "Hg

Humidity: 57%

Dew Point: 59 °F

Location of EnsenadaLocation

Past Weather in Ensenada — Graph

°F

Ensenada Temperature Yesterday

Maximum temperature yesterday: 75 °F (at 1:54 pm)
Minimum temperature yesterday: 63 °F (at 12:44 am)
Average temperature yesterday: 68 °F

High & Low Weather Summary for the Past Weeks

 TemperatureHumidityPressure
High88 °F (Aug 2, 11:48 am)100% (Aug 3, 3:42 am)30.06 "Hg (Aug 3, 3:42 am)
Low61 °F (Aug 17, 4:45 am)47% (Aug 16, 11:55 am)29.57 "Hg (Aug 6, 1:47 am)
Average70 °F79%29.95 "Hg
* Reported Aug 2 10:46 am — Aug 17 10:44 am, Ensenada. Weather by CustomWeather, © 2017

Note: Actual official high and low records may vary slightly from our data, if they occured in-between our weather recording intervals... More about our weather records

Advertising

Ensenada Weather History for the Previous 24 Hours

Scroll right to see more
 ConditionsComfort  
Time TempWeatherWind HumidityBarometerVisibility
10:44 am
Thu, Aug 17
73 °FSunny.No wind61%30.05 "Hg7 mi
9:53 am70 °FSunny.No wind73%30.06 "Hg6 mi
8:55 am68 °FBroken clouds.No wind78%30.05 "Hg6 mi
7:47 am64 °FPartly sunny.No wind83%30.03 "Hg5 mi
6:41 am63 °FPassing clouds.No wind88%30.02 "Hg6 mi
5:42 am61 °FClear.No wind94%30.02 "Hg6 mi
4:45 am61 °FClear.No wind94%30.00 "Hg6 mi
3:42 am63 °FClear.No wind88%30.00 "Hg6 mi
2:41 am63 °FClear.No wind88%30.01 "Hg6 mi
1:43 am63 °FClear.No wind88%30.01 "Hg6 mi
12:43 am63 °FClear.3 mph88%30.01 "Hg6 mi
11:44 pm
Wed, Aug 16
63 °FClear.No wind88%30.01 "Hg6 mi
10:44 pm63 °FClear.No wind88%30.01 "Hg6 mi
9:40 pm64 °FClear.5 mph88%30.00 "Hg6 mi
8:51 pm66 °FClear.No wind83%29.99 "Hg5 mi
7:55 pm66 °FClear.8 mph83%30.01 "Hg6 mi
6:46 pm68 °FSunny.10 mph73%29.96 "Hg8 mi
5:40 pm72 °FSunny.9 mph65%29.95 "Hg8 mi
4:44 pm73 °FSunny.12 mph57%29.97 "Hg8 mi
3:48 pm75 °FSunny.10 mph54%29.97 "Hg8 mi
2:44 pm75 °FSunny.17 mph54%29.97 "Hg8 mi
1:54 pm75 °FSunny.6 mph50%29.97 "Hg8 mi
12:41 pm73 °FSunny.15 mph57%30.01 "Hg8 mi
Weather by CustomWeather, © 2017

See weather overviewHow to use our weather pages